Weather History for KERI - June, 2013

Change the Weather History Date:

Tuesday, June 18, 2013

  Actual Average Record
Temperature  
Mean Temperature 62 °F 68 °F  
Max Temperature 68 °F 77 °F 92 °F (1957)
Min Temperature 55 °F 59 °F 45 °F (1986)
Degree Days  
Heating Degree Days 3 1  
Month to date heating degree days 62 50  
Since 1 June heating degree days 62 50  
Since 1 July heating degree days 5874 6136  
Cooling Degree Days 0 4  
Month to date cooling degree days 35 57  
Year to date cooling degree days 120 96  
Since 1 June cooling degree days 35 57  
Growing Degree Days 12 (Base 50)    
Moisture  
Dew Point 55 °F    
Average Humidity 75    
Maximum Humidity 97    
Minimum Humidity 52    
Precipitation  
Precipitation 0.14 in 0.13 in 1.59 in (1944)
Month to date precipitation 5.27 2.27  
Year to date precipitation 22.50 17.33  
Snow  
Snow 0.00 in 0.00 in - ()
Month to date snowfall 0.0 0.0  
Since 1 June snowfall 0.0 0.0  
Since 1 July snowfall 105.5 100.9  
Snow Depth 0.00 in    
Sea Level Pressure  
Sea Level Pressure 29.95 in    
Wind  
Wind Speed 9 mph (NE)    
Max Wind Speed 22 mph    
Max Gust Speed 30 mph    
Visibility 10 miles    
Events Rain , Thunderstorm    
T = Trace of Precipitation, MM = Missing Value Source: NWS Daily Summary

Daily Weather History Graph

Daily Weather History Graph

Search for Another Location

Airport or City:

Trip Planner

Search our weather history database for the weather conditions in past years. The results will help you decide how hot, cold, wet, or windy it might be!

Date:

Astronomy

Jun. 18, 2013 Rise Set
Actual Time 5:44 AM EDT 8:59 PM EDT
Civil Twilight 5:09 AM EDT 9:34 PM EDT
Nautical Twilight 4:25 AM EDT 10:18 PM EDT
Astronomical Twilight 3:31 AM EDT 11:12 PM EDT
Moon 3:38 PM EDT (6/18) 1:56 AM EDT (6/18)
Length of Visible Light 16h 24m
Length of Day
15h 14m
Waxing Gibbous, 70% of the Moon is Illuminated
Jun 18
Waxing Gibbous
Jun 23
Full
Jun 30
Last Quarter
Jul 8
New
Jul 15
First Quarter

Hourly Weather History & Observations

Time (EDT) Temp. Dew Point Humidity Pressure Visibility Wind Dir Wind Speed Gust Speed Precip Events Conditions
12:51 AM 63.0 °F 57.9 °F 84% 29.95 in 9.0 mi West 6.9 mph - 0.08 in Rain Rain
1:51 AM 63.0 °F 57.9 °F 84% 29.88 in 10.0 mi South 12.7 mph - 0.02 in Rain Light Rain
2:51 AM 63.0 °F 59.0 °F 87% 29.87 in 10.0 mi South 6.9 mph - 0.02 in Rain Light Rain
3:51 AM 64.0 °F 59.0 °F 84% 29.88 in 10.0 mi Calm Calm - 0.01 in   Overcast
4:51 AM 63.0 °F 59.0 °F 87% 29.88 in 10.0 mi North 3.5 mph - N/A   Partly Cloudy
5:31 AM 62.6 °F 57.2 °F 82% 29.92 in 4.0 mi NNE 9.2 mph - 0.10 in Rain , Thunderstorm Light Thunderstorms and Rain
5:51 AM 61.0 °F 57.9 °F 90% 29.91 in 10.0 mi Calm Calm - 0.10 in   Partly Cloudy
6:51 AM 61.0 °F 59.0 °F 93% 29.92 in 9.0 mi NE 4.6 mph - N/A   Clear
7:20 AM 60.8 °F 57.2 °F 88% 29.93 in 10.0 mi NE 9.2 mph - N/A   Partly Cloudy
7:51 AM 61.0 °F 57.0 °F 87% 29.93 in 10.0 mi NE 9.2 mph - N/A   Partly Cloudy
8:05 AM 60.8 °F 57.2 °F 88% 29.95 in 10.0 mi NE 10.4 mph - N/A   Mostly Cloudy
8:51 AM 62.1 °F 57.9 °F 86% 29.95 in 10.0 mi NE 12.7 mph - N/A   Overcast
9:51 AM 62.1 °F 57.9 °F 86% 29.95 in 10.0 mi NE 13.8 mph - N/A   Overcast
10:51 AM 63.0 °F 57.9 °F 84% 29.96 in 10.0 mi NE 11.5 mph - N/A   Overcast
11:26 AM 62.6 °F 57.2 °F 82% 29.97 in 10.0 mi NNE 13.8 mph - N/A   Overcast
11:51 AM 64.0 °F 57.0 °F 78% 29.97 in 10.0 mi NNE 13.8 mph - N/A   Overcast
12:09 PM 64.4 °F 57.2 °F 77% 29.97 in 10.0 mi NE 15.0 mph - N/A   Scattered Clouds
12:51 PM 64.0 °F 55.9 °F 75% 29.96 in 10.0 mi NE 17.3 mph 23.0 mph N/A   Clear
1:51 PM 66.0 °F 55.9 °F 70% 29.98 in 10.0 mi NE 16.1 mph - N/A   Clear
2:51 PM 66.9 °F 54.0 °F 63% 29.97 in 10.0 mi NE 17.3 mph 27.6 mph N/A   Clear
3:51 PM 66.9 °F 54.0 °F 63% 29.97 in 10.0 mi NE 16.1 mph 24.2 mph N/A   Clear
4:51 PM 66.9 °F 53.1 °F 61% 29.96 in 10.0 mi NNE 15.0 mph 20.7 mph N/A   Clear
5:51 PM 66.9 °F 48.9 °F 52% 29.96 in 10.0 mi NNE 15.0 mph 24.2 mph N/A   Clear
6:51 PM 66.9 °F 48.0 °F 51% 29.97 in 10.0 mi NNE 13.8 mph - N/A   Overcast
7:05 PM 66.2 °F 48.2 °F 52% 29.98 in 10.0 mi NE 10.4 mph - N/A   Clear
7:51 PM 64.9 °F 46.9 °F 52% 29.99 in 10.0 mi NE 11.5 mph - N/A   Clear
8:51 PM 63.0 °F 48.9 °F 60% 29.99 in 10.0 mi NE 9.2 mph - N/A   Clear
9:51 PM 61.0 °F 48.9 °F 64% 30.01 in 10.0 mi ENE 5.8 mph - N/A   Clear
10:51 PM 57.9 °F 50.0 °F 75% 30.02 in 10.0 mi Calm Calm - N/A   Clear
11:51 PM 57.0 °F 50.0 °F 77% 30.03 in 10.0 mi Calm Calm - N/A   Clear